Location: Seattle
(47.6064°N, 122.3308°W)
Time: 21:48:28
(UTC-08:00)

N. Korean satellite - Visible Passes

Search period start: 01 December 2022 00:00
Search period end: 11 December 2022 00:00
Orbit: 421 x 453 km, 97.3° (Epoch: 01 December)

Date Brightness Start Highest point End Pass type
(mag) Time Alt. Az. Time Alt. Az. Time Alt. Az.
01 Dec 7.6 05:13:23 10° NNE 05:16:41 43° E 05:19:56 10° S visible
01 Dec 8.1 06:46:57 10° NNW 06:48:51 14° WNW 06:50:43 10° W visible
01 Dec 9.1 17:18:38 10° SSW 17:21:25 24° W 17:24:15 10° NW visible
02 Dec 9.5 04:35:33 10° NE 04:37:40 15° E 04:39:45 10° SE visible
02 Dec 6.9 06:07:09 10° N 06:10:20 36° WNW 06:13:29 10° SW visible
03 Dec 6.6 05:28:10 10° NNE 05:31:35 69° E 05:34:57 10° S visible
03 Dec 9.6 17:34:09 10° SW 17:36:22 16° W 17:38:37 10° NW visible
04 Dec 8.9 04:49:50 10° NE 04:52:35 22° E 04:55:17 10° SSE visible
04 Dec 7.4 06:22:13 10° NNW 06:25:04 25° WNW 06:27:53 10° SW visible
04 Dec 7.6 16:54:01 10° S 16:57:17 47° W 17:00:37 10° NNW visible
05 Dec 6.2 05:42:54 10° N 05:46:19 76° WNW 05:49:41 10° SSW visible
05 Dec 10.0 17:50:08 10° WSW 17:51:12 11° W 17:52:17 10° WNW visible
06 Dec 8.2 05:04:13 10° NNE 05:07:20 33° E 05:10:24 10° SSE visible
06 Dec 7.9 06:37:16 10° NNW 06:39:36 18° WNW 06:41:56 10° WSW visible
06 Dec 8.6 17:08:55 10° SSW 17:11:58 31° W 17:15:03 10° NNW visible
07 Dec 9.8 04:26:47 10° ENE 04:28:05 12° E 04:29:22 10° ESE visible
07 Dec 6.5 05:57:34 10° N 06:00:52 48° WNW 06:04:07 10° SSW visible
08 Dec 7.2 05:18:34 10° NNE 05:21:54 50° E 05:25:10 10° S visible
08 Dec 8.3 06:52:28 10° NW 06:53:59 13° WNW 06:55:29 10° W visible
08 Dec 9.3 17:23:52 10° SW 17:26:32 21° W 17:29:13 10° NW visible
09 Dec 9.3 04:40:22 10° NE 04:42:40 17° E 04:44:56 10° SE visible
09 Dec 7.1 06:12:12 10° N 06:15:16 32° WNW 06:18:17 10° SW visible
10 Dec 6.4 05:32:54 10° NNE 05:36:17 79° E 05:39:37 10° S visible
10 Dec 9.7 17:39:00 10° SW 17:40:59 15° W 17:43:00 10° NW visible
